STARLINK-5672, 55468

Orbit data source: Space-Track

STARLINK-5672, 55468 is a payload satellite owned by SpaceX/Seattle (US) in LEO that was launched on Thu, 02 Feb 2023 UTC via an FALCON 9 launch vehicle from the Air Force Eastern Test Range (AFETR). Payload-class satellites include a variety of spacecraft equipped with specific instruments for various scientific and technological missions. These include communications satellites like Starlink; space stations such as the ISS; scientific satellites like the Hubble; Earth observation satellites from companies like Planet Labs, Umbra, and HawkEye 360; GPS; miniature CubeSats for education and research; and military/defense satellites.

Loading next visibility...
Identifier
55468, 2023-015V
Orbit
LEO
Country
Flag of USUS
Related business
Manufacturer
SpaceX/Seattle
Mission
Operational Commercial Communications
Bus & Motor
STARLINK, Unknown motor
Mass
305 kg wet, ~290 kg dry
Launch date (UTC)
2023-02-02 (3 years ago)
Launch vehicle
FALCON 9
Launch site
Air Force Eastern Test Range (AFETR)
Object type
Payload
Rocket body
Debris
Shape & HBR
Box + 1 Pan, 10.1 m
Radar Cross Section
13.562 m², Large (>1 m²)

Expand to show TLE details & history
Last TLE update: 5 hours ago

TLE from 5 hours ago
0 STARLINK-5672
1 55468U 23015V   26132.84600410  .00000043  00000-0  11091-4 0  9999
2 55468  43.0014 326.4210 0001195 272.0589  88.0126 15.27576654180539
Epoch: 2026-05-12T20:18Z
TLE epoch observation values (Epoch: 2026-05-12T20:18:14.754Z)
Latitude
0.00001°
Longitude
151.24501°
Altitude
482.806 km
Speed
7.626 km/s
True Right ascension
21h 45m 41s
True Declination
0° 00' 00"
Sunlit
Object was in daylight at epoch
Visualization orbit readout
Latitude
Unknown
Longitude
Unknown
Altitude
Unknown
Speed
Unknown
Apparent Right ascension
Unknown
Apparent Declination
Unknown
Sunlit
N/A
Visualization observer readout
Local Sidereal Time
09:32:03
Azimuth
Unknown
Elevation
Unknown
Doppler factor
Unknown
Orbital elements
Apogee altitude
485.824 km
Perigee altitude
484.184 km
Semi-major axis
6,863.141 km
Eccentricity
0.00012
Inclination
43.0014°
RAAN
326.421°
Arg. of periapsis
272.0589°
True anomaly
88.02629°
Mean anomaly
88.0126°
Eccentric anomaly
88.01944°
Mean motion
3.81732 °/min
Orbital period
94.31 mins
BSTAR
0.000011091
Loading maneuver chart data...
Computing Atmospheric mass density...
Loading historical data...
Loading historical data...
Loading historical data...
Loading historical data...
Loading historical data...
Loading historical data...
Loading historical data...

Documentation

Showing up to 5 results
|